Weather History for KUBE - December, 2013

Change the Weather History Date:

Sunday, December 15, 2013

  Actual Average (KRPD) Record (KRPD)
Temperature  
Mean Temperature -8 °F -  
Max Temperature 3 °F 26 °F 45 °F (2014)
Min Temperature -20 °F 12 °F -21 °F (2013)
Degree Days  
Heating Degree Days 74    
Moisture  
Dew Point -15 °F    
Average Humidity 71    
Maximum Humidity 84    
Minimum Humidity 60    
Precipitation  
Precipitation 0.00 in - - ()
Sea Level Pressure  
Sea Level Pressure 30.04 in    
Wind  
Wind Speed 7 mph (NW)    
Max Wind Speed 14 mph    
Max Gust Speed 18 mph    
Visibility 10 miles    
Events      
Averages and records for this station are not official NWS values.
T = Trace of Precipitation, MM = Missing Value Source: NWS Daily Summary

Daily Weather History Graph

Daily Weather History Graph

Search for Another Location

Airport or City:

Trip Planner

Search our weather history database for the weather conditions in past years. The results will help you decide how hot, cold, wet, or windy it might be!

Date:

Astronomy

Dec. 15, 2013 Rise Set
Actual Time 7:41 AM CST 4:25 PM CST
Civil Twilight 7:07 AM CST 4:59 PM CST
Nautical Twilight 6:29 AM CST 5:36 PM CST
Astronomical Twilight 5:53 AM CST 6:12 PM CST
Moon 3:32 PM CST (12/15) 5:54 AM CST (12/15)
Length of Visible Light 9h 52m
Length of Day
8h 43m
Waxing Gibbous, 98% of the Moon is Illuminated
Dec 15
Waxing Gibbous
Dec 17
Full
Dec 25
Last Quarter
Jan 1
New
Jan 7
First Quarter

Hourly Weather History & Observations

Time (CST) Temp. Windchill Dew Point Humidity Pressure Visibility Wind Dir Wind Speed Gust Speed Precip Events Conditions
12:15 AM 3.2 °F -10.3 °F -2.2 °F 78% 29.98 in 10.0 mi WNW 8.1 mph - N/A   Clear
12:35 AM 1.4 °F -12.5 °F -4.0 °F 78% 29.97 in 10.0 mi WNW 8.1 mph - N/A   Clear
12:55 AM -0.4 °F -13.4 °F -5.8 °F 78% 29.97 in 10.0 mi WNW 6.9 mph - N/A   Mostly Cloudy
1:15 AM 1.4 °F -14.5 °F -4.0 °F 78% 29.98 in 10.0 mi NW 10.4 mph - N/A   Mostly Cloudy
1:35 AM 1.4 °F -16.1 °F -5.8 °F 72% 29.97 in 10.0 mi NW 12.7 mph - N/A   Scattered Clouds
1:55 AM 1.4 °F -16.1 °F -5.8 °F 72% 29.98 in 10.0 mi NW 12.7 mph - N/A   Mostly Cloudy
2:15 AM -0.4 °F -17.6 °F -5.8 °F 78% 29.98 in 10.0 mi NW 11.5 mph - N/A   Mostly Cloudy
2:35 AM -0.4 °F -17.6 °F -5.8 °F 78% 29.98 in 10.0 mi NW 11.5 mph 18.4 mph N/A   Mostly Cloudy
2:55 AM -0.4 °F -17.6 °F -5.8 °F 78% 29.99 in 10.0 mi NW 11.5 mph - N/A   Overcast
3:15 AM -0.4 °F -19.2 °F -5.8 °F 78% 30.00 in 10.0 mi NW 13.8 mph - N/A   Overcast
3:35 AM -0.4 °F -17.6 °F -7.6 °F 72% 30.00 in 10.0 mi NW 11.5 mph - N/A   Overcast
3:55 AM -2.2 °F -18.9 °F -7.6 °F 78% 30.00 in 10.0 mi NW 10.4 mph - N/A   Scattered Clouds
4:15 AM -2.2 °F -18.0 °F -7.6 °F 78% 30.00 in 10.0 mi NW 9.2 mph - N/A   Clear
4:35 AM -2.2 °F -18.9 °F -7.6 °F 78% 30.01 in 10.0 mi NW 10.4 mph - N/A   Clear
4:55 AM -4.0 °F -20.2 °F -9.4 °F 78% 30.00 in 10.0 mi NW 9.2 mph - N/A   Clear
5:15 AM -4.0 °F -21.2 °F -9.4 °F 78% 30.01 in 10.0 mi NW 10.4 mph - N/A   Clear
5:35 AM -5.8 °F -23.4 °F -11.2 °F 77% 30.01 in 10.0 mi NW 10.4 mph - N/A   Clear
5:55 AM -5.8 °F -25.2 °F -13.0 °F 71% 30.01 in 10.0 mi NW 12.7 mph - N/A   Clear
6:15 AM -7.6 °F -20.6 °F -14.8 °F 71% 30.01 in 10.0 mi NW 5.8 mph - N/A   Clear
6:35 AM -7.6 °F -23.4 °F -13.0 °F 77% 30.01 in 10.0 mi NW 8.1 mph - N/A   Clear
6:55 AM -7.6 °F -25.7 °F -14.8 °F 71% 30.01 in 10.0 mi NW 10.4 mph - N/A   Clear
7:15 AM -7.6 °F -25.7 °F -14.8 °F 71% 30.02 in 10.0 mi NW 10.4 mph - N/A   Clear
7:35 AM -9.4 °F -26.8 °F -14.8 °F 77% 30.02 in 10.0 mi NW 9.2 mph - N/A   Clear
7:55 AM -9.4 °F -27.9 °F -14.8 °F 77% 30.03 in 10.0 mi NW 10.4 mph - N/A   Clear
8:15 AM -9.4 °F -25.6 °F -14.8 °F 77% 30.03 in 10.0 mi NW 8.1 mph - N/A   Clear
8:35 AM -9.4 °F -26.8 °F -16.6 °F 71% 30.04 in 10.0 mi NW 9.2 mph - N/A   Clear
8:55 AM -9.4 °F -25.6 °F -16.6 °F 71% 30.05 in 10.0 mi NW 8.1 mph - N/A   Clear
9:15 AM -9.4 °F -27.9 °F -16.6 °F 71% 30.05 in 10.0 mi NW 10.4 mph - N/A   Clear
9:35 AM -9.4 °F -25.6 °F -16.6 °F 71% 30.05 in 10.0 mi NW 8.1 mph - N/A   Clear
9:55 AM -9.4 °F -25.6 °F -16.6 °F 71% 30.05 in 10.0 mi NW 8.1 mph - N/A   Clear
10:15 AM -7.6 °F -24.6 °F -16.6 °F 65% 30.06 in 10.0 mi NNW 9.2 mph - N/A   Clear
10:35 AM -7.6 °F -24.6 °F -16.6 °F 65% 30.06 in 10.0 mi NW 9.2 mph - N/A   Clear
10:55 AM -7.6 °F -23.4 °F -16.6 °F 65% 30.05 in 10.0 mi NW 8.1 mph - N/A   Clear
11:15 AM -5.8 °F -21.2 °F -16.6 °F 60% 30.05 in 10.0 mi NNW 8.1 mph - N/A   Clear
11:35 AM -5.8 °F -16.7 °F -14.8 °F 65% 30.04 in 10.0 mi NW 4.6 mph - N/A   Clear
11:55 AM -5.8 °F - -14.8 °F 65% 30.03 in 10.0 mi Calm Calm - N/A   Clear
12:15 PM -5.8 °F -18.4 °F -14.8 °F 65% 30.03 in 10.0 mi NW 5.8 mph - N/A   Clear
12:35 PM -4.0 °F -17.8 °F -14.8 °F 60% 30.03 in 10.0 mi NW 6.9 mph - N/A   Clear
12:55 PM -4.0 °F -19.0 °F -14.8 °F 60% 30.03 in 10.0 mi NW 8.1 mph - N/A   Clear
1:15 PM -4.0 °F -16.3 °F -14.8 °F 60% 30.03 in 10.0 mi NW 5.8 mph - N/A   Clear
1:35 PM -4.0 °F -17.8 °F -14.8 °F 60% 30.03 in 10.0 mi WNW 6.9 mph - N/A   Clear
1:55 PM -4.0 °F -17.8 °F -14.8 °F 60% 30.03 in 10.0 mi WNW 6.9 mph - N/A   Clear
2:15 PM -4.0 °F -16.3 °F -14.8 °F 60% 30.03 in 10.0 mi WNW 5.8 mph - N/A   Clear
2:35 PM -4.0 °F -14.6 °F -14.8 °F 60% 30.03 in 10.0 mi NW 4.6 mph - N/A   Clear
2:55 PM -4.0 °F -17.8 °F -14.8 °F 60% 30.03 in 10.0 mi NW 6.9 mph - N/A   Clear
3:15 PM -4.0 °F -14.6 °F -14.8 °F 60% 30.03 in 10.0 mi NW 4.6 mph - N/A   Clear
3:35 PM -4.0 °F -16.3 °F -14.8 °F 60% 30.05 in 10.0 mi NW 5.8 mph - N/A   Clear
3:55 PM -5.8 °F -16.7 °F -16.6 °F 60% 30.05 in 10.0 mi WNW 4.6 mph - N/A   Clear
4:15 PM -5.8 °F - -14.8 °F 65% 30.05 in 10.0 mi Calm Calm - N/A   Clear
4:35 PM -5.8 °F - -14.8 °F 65% 30.05 in 10.0 mi Calm Calm - N/A   Clear
4:55 PM -7.6 °F -18.8 °F -14.8 °F 71% 30.06 in 10.0 mi NW 4.6 mph - N/A   Clear
5:15 PM -11.2 °F - -18.4 °F 70% 30.06 in 10.0 mi Calm Calm - N/A   Clear
5:35 PM -7.6 °F - -14.8 °F 71% 30.07 in 10.0 mi Calm Calm - N/A   Clear
5:55 PM -7.6 °F - -14.8 °F 71% 30.06 in 10.0 mi Calm Calm - N/A   Clear
6:15 PM -9.4 °F - -16.6 °F 71% 30.07 in 10.0 mi Calm Calm - N/A   Clear
6:35 PM -16.6 °F - -22.0 °F 76% 30.07 in 10.0 mi Calm Calm - N/A   Clear
6:55 PM -13.0 °F - -18.4 °F 77% 30.08 in 10.0 mi Calm Calm - N/A   Clear
7:15 PM -14.8 °F - -20.2 °F 77% 30.08 in 10.0 mi Calm Calm - N/A   Clear
7:35 PM -13.0 °F - -18.4 °F 77% 30.07 in 10.0 mi Calm Calm - N/A   Clear
7:55 PM -18.4 °F - -23.8 °F 76% 30.08 in 10.0 mi Calm Calm - N/A   Clear
8:15 PM -18.4 °F - -23.8 °F 76% 30.08 in 10.0 mi Calm Calm - N/A   Clear
8:35 PM -14.8 °F - -18.4 °F 84% 30.08 in 10.0 mi Calm Calm - N/A   Clear
8:55 PM -16.6 °F - -22.0 °F 76% 30.08 in 10.0 mi Calm Calm - N/A   Clear
9:15 PM -14.8 °F - -20.2 °F 77% 30.08 in 10.0 mi Calm Calm - N/A   Clear
9:35 PM -18.4 °F - -23.8 °F 76% 30.08 in 10.0 mi Calm Calm - N/A   Clear
9:55 PM -18.4 °F - -25.6 °F 70% 30.08 in 10.0 mi Calm Calm - N/A   Clear
10:15 PM -18.4 °F - -23.8 °F 76% 30.08 in 10.0 mi Calm Calm - N/A   Clear
10:35 PM -18.4 °F - -25.6 °F 70% 30.08 in 10.0 mi Calm Calm - N/A   Clear
10:55 PM -20.2 °F - -25.6 °F 76% 30.09 in 10.0 mi Calm Calm - N/A   Mostly Cloudy
11:15 PM -14.8 °F - -22.0 °F 70% 30.08 in 10.0 mi Calm Calm - N/A   Overcast
11:35 PM -13.0 °F - -18.4 °F 77% 30.08 in 10.0 mi Calm Calm - N/A   Overcast
11:55 PM -11.2 °F - -16.6 °F 77% 30.08 in 10.0 mi Calm Calm - N/A   Overcast